Weather in Varaksino

Russia / Vologda Oblast     58°36′21″N   40°26′23″E
temp.,
°C
wind,
m/s
gust,
m/s
humid.,
%
clouds,
%
prec.,
mm/h
press.,
hPa
HPBL,
m
29 june, wed
wed2900:00+8ne25720 0.0 102587
03:00+7nne22785 0.0 102640
06:00+11ne23655 0.0 1025160
09:00+16nne24400 0.0 10251163
12:00+19nne23330 0.0 10241542
15:00+21n33310 0.0 10221803
18:00+20nnw3444100 0.0 10201140
21:00+14nw246499 0.0 102075
30 june, thu
thu3000:00+10nnw24725 0.0 102054
03:00+9nnw24810 0.0 102063
06:00+13nnw3106325 0.0 1019297
09:00+18nnw5846100 0.0 1018889
12:00+21n583541 0.0 10171860
15:00+23n593499 0.0 10162502
18:00+21ne494215 0.0 10172022
21:00+13ne37690 0.0 1018139
1 july, fri
fri100:00+10ne25720 0.0 102086
03:00+7ne11825 0.0 102211
06:00+11nne24685 0.0 1022172
09:00+17ne35435 0.0 10231255
12:00+20ne35335 0.0 10221683
15:00+21nne343272 0.0 10211837
18:00+21ne135319 0.0 1021593
21:00+15w2273100 0.0 102111
2 july, sat
sat200:00+13wnw2272100 0.0 102136
03:00+13wnw266512 0.0 1020114
06:00+16wnw386764 0.0 1019227
09:00+19wnw266627 0.1 1018396
12:00+26n475186 0.1 10161717
15:00+27nnw474983 0.2 10161950
18:00+26nne365156 0.0 1015776
21:00+19n237710 0.0 101647
3 july, sun
sun300:00+16n22808 0.0 101638
03:00+14n22890 0.0 101629
06:00+18n23790 0.0 1016133
09:00+23nne24550 0.0 1016782
12:00+26n34360 0.0 10151651
15:00+27n34340 0.0 10151893
18:00+25n25470 0.0 1015609
21:00+18n12770 0.0 101511